| time (UTC) | temp F | wind direction | speed knots | gust knots | rain 1hr in | rain 24hr in | rain mn in | humidity % | barometer mb |
| 20260510161504 | 55 | 28 | 7.8 | 17.4 | 0.00 | 0.00 | 0.00 | 68 | 1015.7 |
| 20260510160004 | 55 | 14 | 10.4 | 17.4 | 0.00 | 0.00 | 0.00 | 68 | 1015.9 |
| 20260510154504 | 56 | 30 | 7.8 | 13.0 | 0.00 | 0.00 | 0.00 | 67 | 1015.8 |
| 20260510153004 | 56 | 16 | 6.1 | 14.8 | 0.00 | 0.00 | 0.00 | 67 | 1016.0 |
| 20260510151504 | 56 | 17 | 7.8 | 15.6 | 0.00 | 0.00 | 0.00 | 65 | 1016.1 |
| 20260510150004 | 57 | 14 | 8.7 | 15.6 | 0.00 | 0.00 | 0.00 | 67 | 1016.2 |
| 20260510144504 | 57 | 15 | 7.8 | 18.2 | 0.00 | 0.00 | 0.00 | 66 | 1016.5 |
| 20260510143004 | 58 | 33 | 7.0 | 17.4 | 0.00 | 0.00 | 0.00 | 64 | 1016.4 |
| 20260510140004 | 58 | 31 | 8.7 | 13.9 | 0.00 | 0.00 | 0.00 | 65 | 1016.4 |
| 20260510134505 | 58 | 45 | 6.1 | 12.2 | 0.00 | 0.00 | 0.00 | 64 | 1016.6 |
| 20260510133004 | 59 | 38 | 8.7 | 17.4 | 0.00 | 0.00 | 0.00 | 63 | 1016.6 |
| 20260510131504 | 60 | 50 | 7.8 | 13.0 | 0.00 | 0.00 | 0.00 | 65 | 1016.5 |
| 20260510130004 | 59 | 0 | 0.0 | 0.0 | 0.00 | 0.00 | 0.00 | 63 | 1016.6 |
| 20260510124504 | 59 | 0 | 0.0 | 0.0 | 0.00 | 0.00 | 0.00 | 64 | 1016.7 |
| 20260510121504 | 60 | 0 | 0.0 | 0.0 | 0.00 | 0.00 | 0.00 | 64 | 1016.9 |
| 20260510120004 | 60 | 0 | 0.0 | 0.0 | 0.00 | 0.00 | 0.00 | 64 | 1017.1 |
| 20260510114504 | 57 | 0 | 0.0 | 0.0 | 0.00 | 0.00 | 0.00 | 63 | 1017.3 |
| 20260510110004 | 57 | 0 | 0.0 | 0.0 | 0.00 | 0.00 | 0.00 | 67 | 1017.6 |
| 20260510104503 | 58 | 0 | 0.0 | 0.0 | 0.00 | 0.00 | 0.00 | 67 | 1017.7 |
| 20260510101503 | 57 | 0 | 0.0 | 0.0 | 0.00 | 0.00 | 0.00 | 65 | 1017.9 |
| 20260510094505 | 56 | 0 | 0.0 | 0.0 | 0.00 | 0.00 | 0.00 | 68 | 1017.9 |
| 20260510093005 | 56 | 0 | 0.0 | 0.0 | 0.00 | 0.00 | 0.00 | 67 | 1017.9 |
| 20260510091505 | 56 | 0 | 0.0 | 0.0 | 0.00 | 0.00 | 0.00 | 69 | 1017.8 |
| 20260510090005 | 54 | 0 | 0.0 | 0.0 | 0.00 | 0.00 | 0.00 | 71 | 1018.0 |
| 20260510081505 | 54 | 0 | 0.0 | 0.0 | 0.00 | 0.00 | 0.00 | 70 | 1018.1 |
| 20260510073005 | 52 | 0 | 0.0 | 0.0 | 0.00 | 0.00 | 0.00 | 74 | 1018.0 |
| 20260510071505 | 52 | 0 | 0.0 | 0.0 | 0.00 | 0.00 | 0.00 | 76 | 1018.0 |
| 20260510070005 | 51 | 0 | 0.0 | 0.0 | 0.00 | 0.00 | 0.00 | 76 | 1017.8 |
| 20260510064505 | 51 | 0 | 0.0 | 0.0 | 0.00 | 0.00 | 0.00 | 77 | 1017.9 |
| 20260510061505 | 50 | 0 | 0.0 | 0.0 | 0.00 | 0.00 | 0.00 | 79 | 1017.6 |
| 20260510054505 | 48 | 0 | 0.0 | 0.0 | 0.00 | 0.00 | 0.00 | 81 | 1017.6 |
| 20260510053006 | 48 | 0 | 0.0 | 0.0 | 0.00 | 0.00 | 0.00 | 82 | 1017.6 |
| 20260510051505 | 48 | 0 | 0.0 | 0.0 | 0.00 | 0.00 | 0.00 | 82 | 1017.7 |
| 20260510043005 | 48 | 0 | 0.0 | 0.0 | 0.00 | 0.00 | 0.00 | 79 | 1017.4 |
| 20260510033005 | 50 | 0 | 0.0 | 0.0 | 0.00 | 0.00 | 0.00 | 71 | 1017.6 |
| 20260510023005 | 52 | 0 | 0.0 | 0.0 | 0.00 | 0.00 | 0.00 | 66 | 1018.1 |
| 20260510021504 | 52 | 0 | 0.0 | 0.0 | 0.00 | 0.00 | 0.00 | 66 | 1018.1 |
| 20260510011505 | 54 | 0 | 0.0 | 0.0 | 0.00 | 0.00 | 0.00 | 74 | 1017.9 |
| 20260510010004 | 55 | 0 | 0.0 | 0.0 | 0.00 | 0.00 | 0.00 | 74 | 1017.9 |
| 20260510004504 | 55 | 0 | 0.0 | 0.0 | 0.00 | 0.00 | 0.00 | 73 | 1018.0 |
| 20260510001504 | 56 | 0 | 0.0 | 11.3 | 0.00 | 0.00 | 0.00 | 73 | 1018.0 |
| 20260509234504 | 57 | 0 | 0.0 | 0.0 | 0.00 | 0.00 | 0.00 | 72 | 1018.0 |
| 20260509233005 | 57 | 0 | 0.0 | 0.0 | 0.00 | 0.00 | 0.00 | 73 | 1017.9 |
| 20260509230004 | 57 | 0 | 0.0 | 0.0 | 0.00 | 0.00 | 0.00 | 76 | 1017.7 |
| 20260509223005 | 57 | 0 | 0.0 | 0.0 | 0.00 | 0.00 | 0.00 | 77 | 1017.6 |
| 20260509214505 | 57 | 0 | 0.0 | 0.0 | 0.00 | 0.00 | 0.00 | 75 | 1017.7 |
| 20260509213005 | 58 | 0 | 0.0 | 0.0 | 0.00 | 0.00 | 0.00 | 73 | 1017.8 |
| 20260509211504 | 58 | 0 | 0.0 | 0.0 | 0.00 | 0.00 | 0.00 | 70 | 1017.8 |
| 20260509210004 | 59 | 0 | 0.0 | 0.0 | 0.00 | 0.00 | 0.00 | 66 | 1017.5 |
| 20260509204505 | 58 | 0 | 0.0 | 0.0 | 0.00 | 0.00 | 0.00 | 66 | 1017.3 |
| 20260509201504 | 60 | 0 | 0.0 | 0.0 | 0.00 | 0.00 | 0.00 | 63 | 1017.2 |
| 20260509200004 | 61 | 0 | 0.0 | 0.9 | 0.00 | 0.00 | 0.00 | 63 | 1017.0 |
| 20260509194504 | 62 | 26 | 0.9 | 6.1 | 0.00 | 0.00 | 0.00 | 62 | 1017.0 |
| 20260509193005 | 63 | 19 | 4.3 | 8.7 | 0.00 | 0.00 | 0.00 | 60 | 1016.9 |
| 20260509191505 | 64 | 10 | 2.6 | 7.8 | 0.00 | 0.00 | 0.00 | 58 | 1016.9 |
| 20260509190004 | 65 | 23 | 4.3 | 10.4 | 0.00 | 0.00 | 0.00 | 56 | 1016.8 |
| 20260509183005 | 66 | 17 | 4.3 | 8.7 | 0.00 | 0.00 | 0.00 | 55 | 1016.6 |
| 20260509171504 | 67 | 16 | 2.6 | 11.3 | 0.00 | 0.00 | 0.00 | 51 | 1016.5 |
| 20260509170004 | 67 | 16 | 2.6 | 5.2 | 0.00 | 0.00 | 0.00 | 53 | 1016.6 |
| 20260509164504 | 67 | 51 | 2.6 | 7.0 | 0.00 | 0.00 | 0.00 | 53 | 1016.7 |